Regional Weather Roundup
Issued by NWS

Home | Current Version | Previous Version | Text Only | Print | Product List | Glossary Off
Versions: 1 2 3 4 5 6 7 8 9 10 11 12 13 14 15 16 17 18 19 20 21 22 23 24 25 26 27 28 29 30 31 32 33 34 35 36 37 38 39 40 41 42 43 44 45 46 47 48 49 50

000
ASUS43 KDTX 110601
RWRMI
MICHIGAN HOURLY REGIONAL WEATHER ROUNDUP
NATIONAL WEATHER SERVICE DETROIT/PONTIAC MI
200 AM EDT FRI JUL 11 2014

NOTE: "FAIR" INDICATES FEW OR NO CLOUDS BELOW 12,000 FEET WITH NO
SIGNIFICANT WEATHER AND/OR OBSTRUCTION TO VISIBILITY.

MIZ047>049-052>055-059>063-066>070-074>076-081>083-110700-
SOUTHEAST LOWER MICHIGAN

CITY           SKY/WX    TMP DP  RH WIND       PRES   REMARKS
ADRIAN         CLEAR     59  56  89 CALM      30.22R
6HR MIN TEMP:  59; 6HR MAX TEMP:  75;

ALMA           CLEAR     55  53  95 CALM      30.21S
ANN ARBOR      CLOUDY    62  57  83 NE3       30.21R
BAD AXE        CLEAR     50  48  95 CALM      30.22S
6HR MIN TEMP:  49; 6HR MAX TEMP:  66;

CARO           CLEAR     54  53  99 CALM      30.22R
DETROIT CITY   CLEAR     65  56  72 CALM      30.22R
6HR MIN TEMP:  65; 6HR MAX TEMP:  74;

DETROIT        MOCLDY    64  58  80 N5        30.21S
6HR MIN TEMP:  64; 6HR MAX TEMP:  74;

FLINT          CLEAR     61  55  81 CALM      30.22R
6HR MIN TEMP:  60; 6HR MAX TEMP:  74;

GROSSE ILE     CLEAR     64  61  88 NE6       30.20S
HILLSDALE      CLEAR     57  57 100 CALM      30.21S
6HR MIN TEMP:  56; 6HR MAX TEMP:  73;

HOWELL         PTCLDY    58  56  94 CALM      30.22S

CITY           SKY/WX    TMP DP  RH WIND       PRES   REMARKS
JACKSON        CLEAR     57  54  89 CALM      30.21S
6HR MIN TEMP:  57; 6HR MAX TEMP:  72;

LAMBERTVILLE   CLEAR     59  55  88 CALM      30.21R
LANSING        CLEAR     60  53  77 SE3       30.22R
6HR MIN TEMP:  59; 6HR MAX TEMP:  72;

LAPEER         FAIR      55  53  93 CALM      30.23R
MASON          CLEAR     57  54  88 CALM      30.22S
MONROE         CLEAR     59  57  94 CALM      30.19S
MT. CLEMENS    CLEAR     58  56  91 NW2       30.21R
6HR MIN TEMP:  58; 6HR MAX TEMP:  71;

PONTIAC        CLEAR     60  51  72 E3        30.22R
6HR MIN TEMP:  60; 6HR MAX TEMP:  74;

PORT HOPE        N/A     53  51  93 CALM      30.21R
6HR MIN TEMP:  53; 6HR MAX TEMP:  63;

PORT HURON       N/A     52  52 100 CALM      30.22S FOG
TRI CITIES     CLEAR     60  54  80 S6        30.22R
6HR MIN TEMP:  60; 6HR MAX TEMP:  72;

TROY           CLEAR     60  53  76 CALM      30.24R
SAGINAW HB     CLEAR     59  55  88 S3        30.21S
$$
MIZ043>046-050>051-056>058-064>065-071>073-077>080-110700-
SOUTHWEST LOWER MICHIGAN

CITY           SKY/WX    TMP DP  RH WIND       PRES   REMARKS
BATTLE CREEK   CLEAR     59  54  83 CALM      30.21S
6HR MIN TEMP:  59; 6HR MAX TEMP:  74;

BENTON HARBOR  CLEAR     54  52  93 E3        30.19S
6HR MIN TEMP:  53; 6HR MAX TEMP:  69;

BIG RAPIDS     CLEAR     53  53 100 CALM      30.21R
6HR MIN TEMP:  53; 6HR MAX TEMP:  72;

COLDWATER      CLEAR     58  56  96 CALM      30.21S
6HR MIN TEMP:  57; 6HR MAX TEMP:  73;

FREMONT        FAIR      55  55 100 CALM      30.20R
HOLLAND        CLEAR     57  54  89 CALM      30.20S
6HR MIN TEMP:  56; 6HR MAX TEMP:  72;

GRAND RAPIDS   CLEAR     59  55  87 SE3       30.21R
6HR MIN TEMP:  59; 6HR MAX TEMP:  74;

IONIA          FAIR      56  54  92 CALM      30.20S
KALAMAZOO      CLEAR     58  53  84 CALM      30.21R
6HR MIN TEMP:  58; 6HR MAX TEMP:  74;

LUDINGTON      CLEAR     50  49  95 CALM      30.18S
MARSHALL       CLEAR     55  54  94 CALM      30.21S
MOUNT PLEASANT CLEAR     54  53  97 CALM      30.20F
6HR MIN TEMP:  53; 6HR MAX TEMP:  73;

MUSKEGON       CLEAR     59  54  83 CALM      30.19S
6HR MIN TEMP:  58; 6HR MAX TEMP:  71;

SOUTH HAVEN    CLEAR     54  54 100 CALM      30.19F
$$
MIZ016>042-110700-
NORTHERN LOWER MICHIGAN

CITY           SKY/WX    TMP DP  RH WIND       PRES   REMARKS
ALPENA         CLEAR     47  46  97 CALM      30.21S
6HR MIN TEMP:  47; 6HR MAX TEMP:  64; 6HR PCP: TRACE;

BEAVER ISLAND  CLEAR     51  50  97 CALM      30.18R
6HR MIN TEMP:  49; 6HR MAX TEMP:  66;

BELLAIRE       CLEAR     48  46  95 CALM      30.18S
6HR MIN TEMP:  48; 6HR MAX TEMP:  70;

CADILLAC       CLEAR     47  47 100 CALM      30.20S
CHARLEVOIX     CLEAR     57  49  77 SE6       30.20S
6HR MIN TEMP:  54; 6HR MAX TEMP:  66;

FRANKFORT      CLEAR     51  47  88 CALM      30.18R
GAYLORD        CLEAR     53  50  89 CALM      30.20S
6HR MIN TEMP:  53; 6HR MAX TEMP:  69;

GRAYLING       CLEAR     47  47 100 CALM      30.21S
6HR MIN TEMP:  47; 6HR MAX TEMP:  73;

HARBOR SPRINGS CLEAR     53  49  88 CALM      30.17S
HOUGHTON LAKE  CLEAR     49  47  93 E5        30.21S
6HR MIN TEMP:  49; 6HR MAX TEMP:  71;

MANISTEE       CLEAR     50  46  87 E5        30.19S
OSCODA         CLEAR     48  46  90 CALM      30.21R
PELLSTON       CLEAR     46  44  93 CALM      30.19S
6HR MIN TEMP:  46; 6HR MAX TEMP:  70;

ROGERS CITY    CLEAR     56  49  79 S7        30.20S
TRAVERSE CITY  CLEAR     53  49  86 CALM      30.18R
6HR MIN TEMP:  53; 6HR MAX TEMP:  69;

$$
MIZ007>008-015-110700-
EASTERN UPPER MICHIGAN

CITY           SKY/WX    TMP DP  RH WIND       PRES   REMARKS
KINROSS        CLEAR     52  48  87 SE7       30.18R
6HR MIN TEMP:  52; 6HR MAX TEMP:  70;

MACKINAC ISLAN CLEAR     58  51  79 S10       30.18R
6HR MIN TEMP:  54; 6HR MAX TEMP:  64;

NEWBERRY       CLEAR     54  50  86 S13       30.16R
6HR MIN TEMP:  51; 6HR MAX TEMP:  65; 6HR PCP:  0.11;

S. S. MARIE    CLEAR     51  45  79 E3        30.17S
6HR MIN TEMP:  51; 6HR MAX TEMP:  70;

$$
MIZ004>006-011>014-085-110700-
CENTRAL UPPER MICHIGAN

CITY           SKY/WX    TMP DP  RH WIND       PRES   REMARKS
MANISTIQUE     CLEAR     53  50  92 SE5       30.15S
6HR MIN TEMP:  52; 6HR MAX TEMP:  60;

ESCANABA       MOCLDY    63  52  67 S3        30.14S
6HR MIN TEMP:  61; 6HR MAX TEMP:  64;

MENOMINEE      PTCLDY    61  52  72 CALM      30.13S
6HR MIN TEMP:  61; 6HR MAX TEMP:  68;

SAWYER-GWINN   MOCLDY    57  52  82 S8        30.13S
6HR MIN TEMP:  57; 6HR MAX TEMP:  69;

$$
MIZ001>003-009>011-084-110700-
WESTERN UPPER MICHIGAN

CITY           SKY/WX    TMP DP  RH WIND       PRES   REMARKS
IRON MOUNTAIN  PTCLDY    58  53  84 SE6       30.12S
6HR MIN TEMP:  58; 6HR MAX TEMP:  75;

HOUGHTON       PTCLDY    59  51  75 S7        30.05S
6HR MIN TEMP:  54; 6HR MAX TEMP:  65;

COPPER HARBOR    N/A     61  53  75 SW10G17   30.04R
6HR MIN TEMP:  60; 6HR MAX TEMP:  68;

$$

ABBREVIATIONS USED IN REMARKS
   TC - TEMPERATURE IN CELSIUS
  WCI - WIND CHILL INDEX
   HX - HEAT INDEX
  VSB - VISIBILITY



USA.gov is the U.S. government's official web portal to all federal, state and local government web resources and services.